National Weather Service United States Department of Commerce

Latest Hourly Weather Roundup

TOPSWRTT 000
TTAA00 KICT 242103

Wichita AWIPS Roundup
National Weather Service Wichita KS
400 PM CDT MON APR 24 2017

....Central Kansas....
  
CITY           SKY/WX    TMP DP  RH WIND       PRES   REMARKS
RUSSELL        SUNNY     80  45  28 W14       29.49S                  
SALINA         SUNNY     77  50  38 S21G36    29.54F                  
GREAT BEND     MOSUNNY   79  50  36 SW15G21   29.52F                  
ELLSWORTH      NOT AVBL                                               
MCPHERSON      NOT AVBL                                               
HAYS           SUNNY     79  47  32 NW10      29.51F                  

....South Central Kansas....
  
CITY           SKY/WX    TMP DP  RH WIND       PRES   REMARKS
HUTCHINSON     MOSUNNY   75  48  38 S30G36    29.57F                  
NEWTON         CLOUDY    72  50  45 S28G35    29.59F                  
KINGMAN        NOT AVBL                                               
WICHITA (ICT)  CLOUDY    75  49  39 S30G38    29.58F                  
JABARA ARPT    MOSUNNY   74  47  38 S22G37    29.58F                  
MCCONNELL AFB  CLOUDY    75  46  35 SW29G37   29.59F                  
BENTON         FAIR      72  45  37 S24G39    29.60F                  
EL DORADO      FAIR      77  45  31 S28G35    29.60F                  
AUGUSTA        FAIR      72  46  40 S28G36    29.60F                  
HARPER         NOT AVBL                                               
WELLINGTON     NOT AVBL                                               
WINFIELD       SUNNY     74  49  41 S24G35    29.62F                  
 
....Southeast Kansas....
  
CITY           SKY/WX    TMP DP  RH WIND       PRES   REMARKS
EUREKA         NOT AVBL                                               
IOLA           FAIR      72  41  32 S21G33    29.66F                  
CHANUTE        SUNNY     73  43  33 S23G32    29.65F                  
PARSONS        SUNNY     73  46  38 S13G29    29.67F                  
COFFEYVILLE    SUNNY     74  45  35 S21G29    29.67F                  
INDEPENDENCE   SUNNY     72  43  35 S22G28    29.65F                  
FORT SCOTT     NOT AVBL                                               
PITTSBURG      SUNNY     76  45  33 S17       29.68F                  

....Western Kansas....
  
CITY           SKY/WX    TMP DP  RH WIND       PRES   REMARKS
GOODLAND       SUNNY     74  40  29 VRB5      29.58F                  
HILL CITY      SUNNY     79  42  26 VRB3      29.52F                  
LIBERAL        NOT AVBL                                               
GARDEN CITY    CLOUDY    79  40  24 VRB6      29.57F                  
DODGE CITY     CLOUDY    79  40  24 N7        29.56F                  
PRATT          CLOUDY    76  46  34 S16G24    29.55F                  
MEDICINE LODGE   N/A     78  46  32 S22G33    29.54F                  

....Northeast Kansas....
  
CITY           SKY/WX    TMP DP  RH WIND       PRES   REMARKS
CONCORDIA      SUNNY     73  49  42 S22G33    29.51F                  
TOPEKA         MOSUNNY   74  42  31 S21G30    29.61F                  
MANHATTAN      SUNNY     76  46  34 S21G36    29.56F                  
LAWRENCE       CLOUDY    75  42  30 S18G35    29.62F                  
OLATHE         CLOUDY    71  40  32 S21G31    29.64F                  
EMPORIA        SUNNY     74  46  36 S18G29    29.60F                  

....Oklahoma....
  
CITY           SKY/WX    TMP DP  RH WIND       PRES   REMARKS
GAGE           SUNNY     82  45  27 S29G38    29.55F HX  80           
PONCA CITY     SUNNY     76  45  33 S17G32    29.61F                  
BARTLESVILLE   SUNNY     76  43  30 S16G29    29.66F                  
TULSA          MOSUNNY   75  43  31 S26G35    29.64F                  
OKLAHOMA CITY  MOSUNNY   75  49  39 S24G35    29.66F                  

Note: "fair" indicates few or no clouds below 12,000 feet with no
significant weather and/or obstructions to visibility.